Weather History for Beale AFB, CA

Change the Weather History Date:

Saturday, January 18, 2014

  Actual Average Record
Temperature  
Mean Temperature 50 °F -  
Max Temperature 67 °F 53 °F 67 °F (2014)
Min Temperature 33 °F 40 °F 28 °F (2007)
Degree Days  
Heating Degree Days 15    
Moisture  
Dew Point 31 °F    
Average Humidity 57    
Maximum Humidity 80    
Minimum Humidity 23    
Precipitation  
Precipitation 0.00 in - - ()
Sea Level Pressure  
Sea Level Pressure 30.35 in    
Wind  
Wind Speed 2 mph (East)    
Max Wind Speed 7 mph    
Max Gust Speed -    
Visibility 10 miles    
Events      
Averages and records for this station are not official NWS values.
T = Trace of Precipitation, MM = Missing Value Source: NWS Daily Summary

Daily Weather History Graph

Daily Weather History Graph

Search for Another Location

Airport:

Trip Planner

Search our weather history database for the weather conditions in past years. The results will help you decide how hot, cold, wet, or windy it might be!

Date:

Astronomy

Jan. 18, 2014 Rise Set
Actual Time 7:22 AM PST 5:10 PM PST
Civil Twilight 6:52 AM PST 5:39 PM PST
Nautical Twilight 6:20 AM PST 6:12 PM PST
Astronomical Twilight 5:48 AM PST 6:44 PM PST
Moon 7:56 PM PST (1/18) 8:25 AM PST (1/18)
Length of Visible Light 10h 46m
Length of Day
9h 48m
Waning Gibbous, 94% of the Moon is Illuminated
Jan 18
Waning Gibbous
Jan 23
Last Quarter
Jan 30
New
Feb 6
First Quarter
Feb 14
Full

Hourly Weather History & Observations

Time (PST) Temp. Windchill Dew Point Humidity Pressure Visibility Wind Dir Wind Speed Gust Speed Precip Events Conditions
12:58 AM 37.9 °F - 30.0 °F 73% 30.37 in 10.0 mi NE 1.2 mph - N/A   Clear
1:58 AM 37.9 °F 35.5 °F 30.2 °F 74% 30.37 in 10.0 mi WNW 3.5 mph - N/A   Clear
2:58 AM 38.8 °F - 30.7 °F 73% 30.37 in 10.0 mi North 2.3 mph - N/A   Clear
3:58 AM 35.8 °F - 30.0 °F 80% 30.36 in 10.0 mi Calm Calm - N/A   Clear
4:58 AM 37.0 °F - 29.1 °F 73% 30.36 in 10.0 mi ENE 2.3 mph - N/A   Clear
5:58 AM 34.9 °F - 27.5 °F 74% 30.38 in 10.0 mi Calm Calm - N/A   Clear
6:58 AM 34.5 °F 31.6 °F 28.8 °F 79% 30.38 in 10.0 mi East 3.5 mph - N/A   Clear
7:58 AM 33.6 °F - 27.5 °F 78% 30.40 in 10.0 mi NE 1.2 mph - N/A   Clear
8:58 AM 42.3 °F 39.4 °F 32.9 °F 69% 30.41 in 10.0 mi SW 4.6 mph - N/A   Clear
9:58 AM 48.6 °F - 32.0 °F 53% 30.42 in 10.0 mi Calm Calm - N/A   Clear
10:58 AM 55.2 °F - 35.2 °F 47% 30.41 in 10.0 mi SW 6.9 mph - N/A   Clear
11:58 AM 60.3 °F - 31.5 °F 34% 30.39 in 10.0 mi West 4.6 mph - N/A   Clear
12:58 PM 64.2 °F - 28.8 °F 26% 30.36 in 10.0 mi SSW 4.6 mph - N/A   Clear
1:58 PM 65.7 °F - 26.8 °F 23% 30.33 in 10.0 mi ESE 2.3 mph - N/A   Clear
2:58 PM 67.3 °F - 27.9 °F 23% 30.33 in 10.0 mi Calm Calm - N/A   Clear
3:58 PM 66.6 °F - 29.7 °F 25% 30.31 in 10.0 mi SSE 2.3 mph - N/A   Clear
4:58 PM 58.8 °F - 36.3 °F 43% 30.31 in 10.0 mi SSW 5.8 mph - N/A   Clear
5:58 PM 53.4 °F - 36.0 °F 52% 30.30 in 10.0 mi SE 3.5 mph - N/A   Clear
6:58 PM 47.1 °F - 33.6 °F 59% 30.32 in 10.0 mi NE 5.8 mph - N/A   Clear
7:58 PM 46.2 °F 44.1 °F 32.0 °F 58% 30.32 in 10.0 mi ENE 4.6 mph - N/A   Clear
8:58 PM 43.5 °F 40.9 °F 31.3 °F 62% 30.32 in 10.0 mi ENE 4.6 mph - N/A   Clear
9:58 PM 42.4 °F - 30.6 °F 63% 30.33 in 10.0 mi NNE 2.3 mph - N/A   Clear
10:58 PM 40.5 °F - 30.0 °F 66% 30.33 in 10.0 mi East 1.2 mph - N/A   Clear
11:58 PM 39.2 °F - 30.0 °F 70% 30.33 in 10.0 mi Calm Calm - N/A   Clear